Torna al catalogo

STARLINK-35073

AttivoComunicazioniSSO
NORAD 65385·PAYLOAD·🇺🇸 United States

Lanciato Aug 30, 2025 da Vandenberg Space Force Base

Loading…

Prossimi Passaggi (prossime 24 ore)

TLE

AggiornatoSource: CelesTrak SupGP

Epoca: Sep 14, 2026, 21:29 UTC

1 65385C 25191G   26257.89562500 -.00013341  00000+0 -41427-3 0  2573
2 65385  97.2843 124.0056 0001653  91.8962 139.6140 15.33435986    12

Traccia STARLINK-35073 in tempo reale con AllMySat

Download on the App Store